Location: Biltmore Gardens
(41.6070°N, 83.4666°W)
Time: 13:29:53
(UTC+00:00)

Meteor 1-27 Rocket - Pass Details

Date: 14 July 2020
Orbit: 830 x 910 km, 81.3° (Epoch: 04 August)

Event Time Altitude Azimuth Distance (km) Brightness Sun altitude
Rises 05:57:03 0° 347° (NNW) 3,430 8.0 -26.7°
Reaches altitude 10° 05:59:28 10° 345° (NNW) 2,501 7.0 -26.6°
Maximum altitude 06:05:07 69° 264° (W) 931 3.7 -26.5°
Enters shadow 06:05:26 67° 240° (WSW) 941 3.7 -26.5°
